Location: De Greiden
(52.9496°N, 5.9137°E)
Time: 01:46:08
(UTC+00:00)

Cosmos 2263 Rocket - Pass Details

Date: 24 January 2021
Orbit: 825 x 847 km, 71.0° (Epoch: 26 February)

Event Time Altitude Azimuth Distance (km) Brightness Sun altitude
Rises 19:39:25 0° 286° (WNW) 3,406 6.5 -31.7°
Reaches altitude 10° 19:43:08 10° 311° (NW) 2,468 5.3 -32.2°
Maximum altitude 19:46:09 14° 343° (NNW) 2,163 4.6 -32.6°
Enters shadow 19:47:36 13° 0° (N) 2,235 4.5 -32.9°
